Temperature
16 17 17 17 17 17 17 17 17 17 18 18 17 17 17 17 17 17 16 16 15 15 14 14 13 12 12 12 11 11 11 11 11 11 10 10 10 9 9 8 8 8 7
16 16 16 16 16 17 17 17 17 17 17 17 18 18 18 18 17 17 17 16 16 15 15 14 14 13 12 12 11 11 11 11 11 11 11 10 10 10 9 9 8 8 7
14 15 15 16 16 16 17 17 17 17 17 17 17 16 16 16 16 16 16 16 16 16 15 15 14 14 13 12 12 11 11 11 11 11 11 11 11 10 9 9 8 8 7
13 14 15 15 15 16 16 16 16 16 16 16 16 16 16 15 16 16 16 16 16 16 16 15 15 14 13 13 12 12 11 11 11 11 11 11 11 10 10 9 9 8 7
12 13 13 14 14 15 15 15 16 16 16 16 16 16 16 16 16 16 16 16 16 16 16 15 15 14 14 13 13 12 11 11 11 11 11 10 10 10 10 9 9 8 7
12 12 13 13 13 14 14 14 15 15 15 15 15 16 16 16 16 15 15 15 15 15 15 15 15 15 14 14 13 12 12 11 11 11 11 11 10 10 10 9 9 8 7
12 12 12 12 13 13 13 13 14 14 14 15 15 15 15 15 15 15 15 15 15 15 15 15 15 15 14 14 13 12 11 11 11 10 10 10 9 9 9 8 8 7 6
11 11 11 11 11 12 12 12 13 13 14 14 14 14 15 14 15 15 15 15 15 15 15 15 15 15 14 13 12 11 11 10 10 9 9 9 8 8 8 7 7 6 5
10 10 10 10 10 11 11 11 12 12 13 13 13 14 14 14 14 14 14 14 14 14 14 14 14 14 14 13 12 11 10 9 9 8 8 8 7 7 6 6 5 4 3
10 9 9 9 9 9 10 10 11 11 11 12 12 13 13 13 13 13 13 13 13 13 13 13 13 13 13 12 11 10 9 8 7 7 7 6 6 5 4 4 3 2 2
9 8 8 8 8 9 9 9 9 10 10 11 11 12 12 12 13 13 12 12 11 11 11 12 12 11 11 10 10 9 8 7 6 5 5 4 4 3 3 2 2 1 0
8 7 7 7 8 8 8 8 8 9 9 10 10 11 11 12 12 11 11 10 10 10 10 10 10 10 10 9 8 7 6 5 5 4 4 3 2 2 1 0 -0 -1 -1
7 6 6 6 6 7 7 7 7 8 8 9 9 10 10 10 10 10 9 9 9 9 9 9 9 9 8 8 6 5 4 4 3 3 3 2 1 0 -0 -1 -1 -2 -2
5 5 5 5 5 6 6 6 7 7 7 8 8 9 9 9 8 8 8 8 8 8 8 8 8 7 6 5 4 3 3 3 3 2 2 1 0 -0 -1 -2 -2 -3 -3
4 3 3 4 4 5 5 5 6 6 6 7 7 8 8 8 7 7 7 7 7 7 7 7 6 5 3 3 3 3 3 2 2 2 1 0 -1 -1 -2 -2 -3 -4 -4
2 2 2 3 3 4 4 4 5 5 5 6 6 6 6 6 6 6 6 6 5 5 5 4 3 2 2 2 2 2 2 2 1 1 -0 -1 -2 -2 -3 -3 -4 -5 -5
1 1 1 1 2 2 3 3 3 3 4 4 4 4 4 4 4 4 4 3 3 2 2 1 1 1 1 1 1 1 1 1 0 -0 -1 -2 -2 -3 -3 -4 -4 -5 -5
1 1 1 1 1 1 1 1 2 2 2 2 2 2 2 2 2 2 2 1 1 0 0 0 0 1 1 1 1 1 0 -0 -1 -2 -2 -3 -3 -4 -4 -5 -5 -6 -6
1 0 0 0 0 0 0 1 1 1 1 1 1 1 1 1 1 0 0 0 -0 -0 -0 -0 0 0 0 0 -0 -0 -1 -2 -2 -3 -3 -4 -4 -4 -5 -7 -8 -8 -7
1 0 -0 -0 -0 -0 -0 -0 0 0 0 -0 -0 -0 -0 -0 -0 -0 -0 -0 -0 -0 -0 -0 -0 -0 -1 -1 -1 -2 -2 -3 -3 -4 -4 -5 -5 -6 -7 -8 -9 -8 -8
1 1 0 0 0 -0 -0 -0 -0 -0 -1 -0 -0 -0 -0 -0 -0 -0 -0 -0 -0 -0 -0 -0 -1 -1 -2 -2 -3 -3 -3 -4 -4 -5 -5 -6 -6 -8 -9 -9 -9 -9 -9
2 2 1 1 1 0 0 0 -0 -0 -0 -0 -0 -0 -0 -0 -0 -0 -0 -0 -0 -1 -1 -1 -2 -2 -3 -3 -4 -4 -5 -5 -6 -6 -6 -7 -8 -9 -9 -9 -9 -9 -9
3 3 2 2 2 1 1 1 1 0 0 0 0 0 0 -0 -0 -1 -1 -1 -1 -1 -2 -2 -2 -3 -4 -4 -5 -5 -6 -6 -7 -7 -7 -8 -8 -8 -8 -8 -8 -8 -8
4 3 3 3 2 2 1 1 1 1 1 1 0 -0 -0 -0 -1 -1 -1 -2 -2 -2 -2 -3 -3 -4 -4 -5 -5 -6 -6 -7 -7 -8 -8 -8 -8 -8 -8 -8 -8 -8 -9
4 3 3 3 2 2 2 1 1 1 1 0 0 -0 -1 -1 -1 -1 -2 -2 -2 -3 -3 -4 -4 -4 -5 -6 -7 -8 -8 -8 -8 -8 -8 -8 -8 -8 -8 -8 -8 -8 -8
4 3 3 3 2 2 2 1 1 0 0 0 -0 -1 -1 -1 -2 -2 -2 -3 -3 -3 -4 -4 -5 -5 -6 -7 -7 -8 -8 -8 -8 -8 -8 -8 -9 -9 -9 -9 -8 -8 -8
Wind_Speed
11 9 9 9 9 8 10 11 11 12 11 10 13 13 14 13 12 12 15 17 18 19 15 9 10 11 11 11 10 6 5 3 4 4 3 2 2 1 2 3 3 3 4
11 9 8 8 9 9 9 10 11 11 11 12 12 10 11 10 12 10 11 17 17 18 16 13 13 12 10 11 10 7 5 3 4 4 4 2 1 2 0 1 3 3 5
12 11 9 9 8 9 10 9 11 11 11 12 8 5 5 4 7 9 11 12 16 18 16 15 13 13 13 13 13 11 9 6 4 3 4 5 6 3 1 1 1 3 3
9 9 9 9 8 9 8 8 9 9 10 10 9 11 12 12 12 12 12 12 15 17 18 16 15 15 13 14 14 12 7 8 5 3 1 2 4 4 3 2 1 2 3
7 7 8 7 7 7 6 5 6 7 8 8 11 13 14 13 9 8 11 12 12 13 15 16 14 15 13 14 14 13 9 7 7 6 4 3 2 2 4 3 3 2 2
9 8 8 8 8 8 7 6 6 7 6 7 9 11 14 13 10 11 12 11 9 10 13 13 13 14 12 14 13 14 14 9 8 6 5 5 4 4 4 3 3 3 2
9 10 12 12 11 10 9 7 7 7 7 6 8 10 12 13 14 14 14 12 10 10 15 15 14 13 12 11 11 11 12 10 11 8 5 4 4 4 4 4 3 1 1
10 10 10 10 10 10 9 8 8 8 7 7 8 9 10 9 9 12 11 13 13 14 14 15 13 12 12 12 11 9 8 8 9 8 7 6 4 3 4 4 4 2 2
11 11 11 10 11 11 11 9 9 9 9 8 8 8 8 9 10 10 10 8 8 7 10 11 11 11 11 12 12 9 9 9 8 8 8 6 4 4 4 3 4 4 3
12 12 11 11 11 11 11 10 9 9 9 8 7 7 8 8 8 7 9 8 7 8 11 11 12 12 12 12 10 10 10 11 9 8 9 7 4 4 3 3 2 2 4
12 11 12 12 12 11 11 10 9 9 8 8 7 7 6 5 5 6 7 8 8 10 12 13 13 13 12 12 11 11 12 12 11 9 9 7 5 3 3 2 2 2 3
10 10 11 12 12 12 11 10 9 8 8 7 7 6 4 3 4 5 6 8 10 11 12 13 13 13 13 13 14 14 13 12 11 9 8 6 4 3 2 2 2 3 4
10 10 11 12 12 12 10 9 9 8 7 6 5 3 1 3 4 6 7 9 11 11 12 13 13 13 13 14 14 14 13 12 10 9 7 5 4 3 2 2 3 3 4
10 11 12 12 12 10 9 9 9 8 7 6 4 2 1 4 6 8 9 10 12 13 13 13 14 14 14 14 14 14 14 12 10 8 7 5 3 3 3 3 5 5 5
11 11 12 12 12 10 9 9 9 8 7 6 6 5 6 8 9 11 11 12 13 14 14 15 15 14 13 13 14 13 13 11 10 7 5 3 2 2 3 4 5 5 5
10 11 11 11 11 10 9 9 9 9 8 8 8 9 10 11 12 13 14 14 14 14 15 15 15 14 12 19 19 14 11 9 8 6 4 2 1 1 3 6 7 7 6
9 9 9 9 9 9 8 8 8 8 9 10 10 11 12 13 13 14 15 15 14 14 14 14 15 15 17 20 19 16 10 8 6 5 4 2 1 2 3 6 9 9 12
7 7 7 7 7 8 8 8 8 9 9 10 10 11 12 13 13 14 14 13 12 12 13 13 13 13 15 18 18 15 9 7 6 4 3 1 2 3 6 6 5 6 7
4 4 5 5 6 7 7 7 8 9 9 10 10 10 11 12 12 12 12 11 12 11 11 11 11 12 12 15 14 12 6 6 4 3 2 1 3 8 10 6 5 6 7
3 4 4 5 6 7 6 8 8 9 9 9 9 9 10 11 11 11 11 10 10 10 10 10 9 9 7 10 11 10 5 4 2 1 1 4 6 10 11 5 4 6 7
3 4 5 5 6 6 6 8 8 8 8 8 9 10 10 10 10 10 10 10 10 10 10 10 8 7 7 7 7 8 4 3 2 1 1 3 9 10 11 10 4 9 10
3 4 4 5 6 6 6 8 7 6 7 8 9 10 9 9 9 10 9 9 9 9 8 8 7 5 5 7 7 6 4 3 2 1 3 5 10 11 11 9 11 15 11
3 4 5 5 6 5 6 7 5 6 7 9 10 9 10 9 8 8 8 7 7 6 5 5 5 4 4 5 6 6 5 5 1 2 6 8 10 10 7 10 13 9 4
4 4 5 6 5 5 6 5 5 6 8 9 8 8 8 8 8 6 6 6 5 5 5 4 4 3 2 2 2 2 2 4 4 3 4 6 8 8 9 8 7 5 5
5 5 5 6 6 5 6 5 5 7 9 8 7 7 7 7 7 6 5 5 3 4 4 3 3 2 1 2 3 2 2 2 3 1 1 3 4 5 5 5 5 5 5
6 6 6 6 6 6 6 5 5 7 8 7 6 5 5 5 5 5 5 8 6 8 7 4 2 0 1 4 6 7 8 8 9 4 3 3 4 5 6 7 7 7 6
Wind_Direction
265 255 245 245 245 238 228 227 224 222 212 204 207 210 214 213 210 210 206 198 194 188 184 178 173 174 176 174 160 137 129 128 141 114 89 37 37 176 207 206 201 206 198
293 284 266 253 241 237 229 225 225 225 216 210 208 208 210 213 212 208 203 199 192 188 188 180 180 181 174 167 167 150 140 141 168 145 133 154 301 271 217 217 200 192 174
293 297 294 278 265 252 239 229 222 222 220 213 205 192 188 193 200 204 206 199 192 189 190 186 180 181 179 181 180 170 156 155 180 192 155 158 203 210 267 291 188 175 161
305 305 307 302 287 270 258 241 231 227 224 212 202 198 206 214 212 210 209 199 193 191 191 186 183 183 185 184 185 178 166 149 157 171 154 130 143 153 185 262 247 192 180
340 340 333 323 320 316 306 282 259 244 233 218 211 208 215 219 212 203 202 200 196 194 192 188 187 187 188 186 182 178 174 164 160 159 152 131 87 113 148 192 222 236 216
0 3 0 2 356 350 344 331 307 279 259 237 223 217 219 217 206 201 204 202 197 196 195 190 190 189 188 187 185 182 180 173 160 159 156 154 156 173 160 162 182 209 243
357 357 356 352 347 342 338 332 322 301 286 260 239 227 226 221 215 210 209 203 198 200 199 194 193 191 188 182 175 175 178 169 163 160 154 142 138 139 140 135 142 178 291
350 346 339 333 327 321 320 321 315 302 293 275 257 242 232 225 224 218 212 208 207 206 198 194 191 184 176 172 167 165 164 157 152 145 135 127 118 114 123 134 132 137 294
334 331 326 322 317 310 305 302 301 296 291 282 271 259 240 226 224 218 214 211 205 190 179 177 173 168 164 162 159 157 150 141 131 125 117 109 100 91 91 106 128 151 209
325 325 321 317 312 303 297 295 288 282 283 283 272 263 250 235 225 210 207 198 178 160 158 160 158 155 152 151 146 140 134 126 116 114 109 97 93 91 86 98 105 134 175
317 319 319 317 313 309 303 299 298 294 292 291 284 270 256 238 214 205 197 178 161 155 157 155 151 149 146 143 137 132 128 120 112 107 107 100 99 103 105 107 132 164 175
315 320 321 323 323 319 315 312 311 306 298 294 288 273 253 212 186 176 160 152 151 150 148 145 143 141 139 136 133 127 121 117 114 108 108 110 117 124 141 164 194 207 207
332 332 331 331 326 322 321 324 325 318 314 311 306 295 221 162 150 139 133 135 136 135 135 135 135 133 130 127 123 119 114 110 110 112 114 119 127 146 176 202 224 234 236
337 338 338 334 329 326 330 335 338 337 339 342 347 348 125 125 121 119 119 122 125 125 123 122 121 121 120 118 116 113 110 108 106 105 105 114 138 179 210 226 232 237 245
343 345 343 337 338 342 348 352 352 355 4 22 35 47 80 96 103 105 107 109 111 113 114 114 112 112 112 115 114 111 111 110 106 101 99 103 121 227 229 235 232 228 238
342 344 344 345 349 352 356 2 9 12 29 47 54 63 78 86 92 97 100 102 104 107 109 111 111 108 109 113 112 111 107 107 109 108 100 95 88 336 311 294 285 266 253
339 343 344 348 352 359 6 15 22 32 47 56 62 69 79 85 89 95 97 99 101 103 104 105 107 107 112 111 108 106 105 104 105 109 111 104 70 9 305 296 295 292 291
337 342 346 353 1 11 21 31 39 48 58 65 70 76 85 89 90 93 96 98 101 102 103 104 105 106 110 109 107 106 104 106 111 116 123 145 268 288 284 261 263 264 273
339 348 359 9 17 23 28 43 50 53 60 65 70 77 86 91 92 94 96 99 100 99 99 101 102 102 106 109 111 111 111 109 112 124 155 230 267 296 304 295 272 274 275
9 17 20 28 33 30 37 53 54 56 58 62 69 74 82 89 92 94 94 94 96 96 93 89 88 96 103 116 119 121 113 113 120 134 273 302 302 303 307 297 279 284 282
52 48 42 41 38 40 53 60 57 55 58 67 73 75 80 85 89 89 88 91 92 91 88 85 77 73 82 93 105 119 120 131 143 188 258 277 305 310 313 320 312 298 309
79 69 61 52 47 55 69 70 61 58 66 72 76 75 75 80 84 86 85 85 91 91 89 88 79 59 53 69 73 75 78 91 148 253 260 272 306 321 327 328 316 317 328
106 91 85 72 60 61 75 82 71 75 80 78 75 75 74 71 74 82 85 80 80 89 88 88 87 70 49 43 54 47 29 8 356 272 306 319 330 338 336 324 325 335 333
130 121 109 96 80 71 73 79 86 89 90 85 78 76 77 73 65 65 75 84 88 93 94 94 92 76 46 18 357 342 328 322 319 316 332 344 345 343 333 331 329 317 301
140 132 126 116 108 97 86 84 91 99 94 86 82 78 77 81 74 69 74 87 89 122 119 120 124 112 44 307 334 346 289 292 293 10 39 355 342 338 330 321 312 307 310
145 140 133 127 121 113 102 96 101 108 109 100 89 84 84 80 80 80 70 77 87 86 92 108 118 196 321 337 353 348 346 347 345 12 358 336 328 322 318 316 314 310 302
Height
1478 1480 1482 1483 1484 1485 1486 1487 1489 1491 1492 1493 1495 1496 1498 1500 1503 1506 1508 1511 1512 1515 1517 1519 1522 1524 1526 1528 1531 1533 1534 1535 1536 1537 1538 1538 1538 1538 1539 1539 1539 1539 1539
1472 1473 1475 1476 1476 1477 1479 1480 1481 1483 1485 1486 1487 1489 1491 1493 1496 1499 1501 1504 1506 1509 1511 1514 1516 1518 1520 1523 1525 1527 1529 1531 1532 1533 1534 1534 1536 1534 1535 1535 1536 1536 1536
1467 1467 1467 1467 1468 1469 1471 1472 1474 1476 1478 1479 1481 1482 1483 1485 1487 1490 1493 1496 1499 1501 1505 1507 1510 1512 1514 1516 1518 1521 1523 1525 1527 1529 1530 1530 1529 1530 1531 1531 1532 1532 1532
1464 1463 1462 1462 1462 1463 1463 1465 1467 1469 1471 1473 1473 1474 1475 1476 1478 1482 1485 1488 1491 1494 1497 1500 1503 1505 1508 1510 1512 1515 1517 1520 1521 1523 1524 1526 1526 1527 1527 1528 1528 1528 1528
1463 1461 1461 1460 1460 1460 1459 1460 1461 1462 1464 1465 1466 1467 1468 1470 1472 1475 1477 1480 1483 1486 1489 1492 1495 1498 1500 1503 1505 1508 1511 1513 1515 1517 1518 1520 1521 1522 1523 1523 1523 1523 1523
1462 1460 1460 1459 1458 1458 1457 1457 1457 1458 1458 1459 1460 1460 1461 1463 1465 1466 1469 1471 1473 1476 1480 1484 1487 1490 1493 1495 1498 1501 1504 1506 1509 1511 1513 1514 1516 1516 1518 1518 1518 1519 1519
1461 1459 1458 1456 1456 1455 1455 1454 1453 1453 1454 1454 1454 1454 1455 1456 1457 1459 1461 1463 1464 1467 1470 1474 1478 1481 1485 1488 1491 1494 1497 1500 1502 1505 1507 1509 1510 1512 1513 1514 1514 1514 1514
1461 1459 1457 1455 1453 1452 1451 1450 1449 1448 1449 1448 1448 1449 1449 1450 1451 1452 1454 1455 1456 1459 1462 1466 1469 1473 1477 1480 1484 1487 1491 1493 1496 1499 1501 1503 1505 1507 1507 1509 1509 1509 1509
1460 1458 1455 1452 1450 1447 1446 1444 1443 1442 1442 1442 1442 1442 1443 1443 1444 1445 1446 1447 1449 1451 1454 1457 1461 1465 1468 1472 1476 1480 1483 1487 1490 1493 1496 1498 1500 1502 1503 1504 1504 1506 1504
1458 1455 1452 1448 1445 1442 1440 1438 1437 1436 1436 1436 1436 1436 1436 1437 1437 1438 1438 1440 1441 1444 1446 1449 1453 1457 1461 1465 1469 1473 1477 1480 1483 1487 1490 1493 1495 1497 1498 1499 1499 1500 1500
1456 1452 1448 1444 1440 1437 1434 1431 1430 1429 1428 1429 1429 1429 1429 1430 1430 1431 1431 1433 1434 1436 1439 1442 1446 1450 1454 1459 1463 1467 1470 1474 1478 1482 1485 1488 1490 1492 1493 1494 1494 1495 1494
1453 1449 1444 1440 1436 1432 1429 1426 1424 1423 1422 1422 1422 1422 1422 1423 1424 1424 1425 1427 1429 1431 1434 1437 1441 1445 1449 1453 1457 1461 1465 1470 1474 1478 1481 1483 1485 1487 1488 1489 1489 1489 1488
1449 1445 1441 1436 1432 1428 1425 1423 1420 1418 1417 1416 1416 1416 1416 1417 1418 1419 1420 1422 1424 1427 1429 1433 1437 1441 1445 1448 1452 1457 1462 1466 1471 1474 1476 1478 1481 1482 1483 1483 1483 1483 1482
1446 1442 1438 1434 1430 1426 1423 1420 1417 1415 1414 1413 1412 1411 1411 1412 1413 1414 1416 1418 1421 1423 1426 1430 1434 1437 1441 1445 1450 1455 1460 1464 1467 1471 1473 1475 1476 1477 1478 1478 1477 1477 1476
1444 1440 1436 1432 1428 1425 1422 1419 1416 1414 1412 1410 1409 1409 1409 1409 1410 1411 1413 1415 1418 1421 1424 1427 1431 1435 1440 1445 1449 1454 1458 1462 1465 1468 1470 1471 1472 1472 1472 1473 1472 1471 1469
1442 1439 1435 1432 1428 1425 1422 1419 1416 1413 1411 1409 1408 1408 1407 1408 1408 1409 1411 1413 1416 1419 1423 1426 1431 1435 1440 1445 1450 1454 1457 1460 1463 1465 1466 1466 1467 1468 1468 1468 1467 1466 1464
1442 1438 1435 1432 1429 1425 1423 1420 1417 1414 1412 1410 1409 1408 1408 1408 1408 1409 1411 1414 1416 1420 1424 1428 1433 1437 1442 1446 1450 1454 1456 1458 1460 1461 1462 1462 1463 1464 1463 1462 1461 1460 1458
1441 1438 1435 1432 1429 1427 1424 1421 1419 1416 1414 1412 1411 1410 1410 1410 1411 1412 1414 1417 1420 1424 1428 1432 1436 1440 1444 1447 1450 1453 1455 1456 1457 1459 1459 1460 1460 1459 1457 1456 1454 1453 1451
1441 1438 1435 1433 1430 1428 1425 1423 1421 1419 1417 1415 1415 1415 1415 1415 1416 1417 1419 1422 1425 1428 1433 1436 1440 1442 1445 1448 1450 1451 1452 1454 1455 1456 1456 1456 1455 1454 1452 1451 1449 1446 1444
1440 1438 1436 1433 1431 1429 1428 1426 1424 1422 1421 1420 1420 1420 1420 1421 1422 1423 1425 1428 1431 1434 1437 1440 1442 1444 1446 1448 1449 1450 1451 1452 1453 1453 1453 1452 1450 1449 1447 1446 1443 1440 1438
1440 1438 1437 1435 1433 1432 1431 1429 1428 1427 1426 1426 1426 1426 1427 1427 1429 1430 1432 1435 1437 1439 1441 1443 1444 1446 1447 1448 1449 1450 1450 1450 1450 1450 1449 1447 1445 1444 1443 1441 1438 1435 1433
1441 1440 1438 1437 1436 1435 1434 1434 1432 1432 1432 1432 1432 1432 1433 1434 1436 1437 1439 1440 1442 1443 1444 1446 1446 1448 1448 1449 1449 1449 1449 1448 1447 1446 1444 1443 1441 1440 1438 1435 1432 1430 1427
1442 1441 1441 1440 1439 1439 1439 1438 1438 1438 1438 1438 1438 1439 1439 1440 1441 1442 1443 1444 1445 1446 1447 1448 1448 1449 1449 1449 1448 1447 1446 1445 1443 1442 1440 1439 1437 1435 1432 1430 1427 1425 1422
1442 1442 1443 1442 1442 1442 1443 1442 1442 1443 1443 1443 1443 1444 1444 1445 1445 1446 1447 1447 1448 1448 1449 1449 1449 1448 1448 1447 1446 1445 1443 1442 1440 1438 1437 1435 1433 1431 1428 1426 1424 1421 1419
1442 1443 1444 1444 1444 1445 1445 1445 1446 1447 1447 1447 1447 1448 1448 1448 1449 1449 1449 1449 1449 1449 1449 1448 1448 1447 1446 1445 1444 1442 1440 1439 1437 1435 1433 1431 1429 1427 1425 1423 1421 1419 1416
1441 1443 1444 1445 1446 1447 1447 1448 1449 1450 1450 1450 1450 1451 1451 1450 1450 1450 1450 1450 1450 1449 1448 1447 1446 1445 1444 1443 1441 1440 1438 1436 1434 1432 1430 1428 1426 1424 1421 1419 1417 1415 1413